[[{"header":{"parameterUnit":"m.s-1","parameterCategory":1,"la1":30.2991,"la2":30.254,"lo1":-89.0895,"lo2":-89.0444,"dy":0.0017,"dx":0.0017,"nx":28,"ny":28,"refTime":"2025-08-25T09:00:00:Z","depth":0,"parameterNumber":2,"parameterNumberName":"U-component_of_WINDS"},"data":[0,0,0,0,0,0,0,0,0,0,0,0,0,0,0,0,0,0,0,0,0,0,0,0,0,0,0,0,0,0,0,0,0,0,0,0,0,0,0,0,0,0,0,0,0,0,0,0,0,0,0,0,0,0,0,0,0,0,-2.6859,-2.6858,0,-2.6784,-2.6783,-2.6782,-2.6657,-2.6655,-2.6653,-2.665,-2.6575,-2.6575,-2.6575,0,0,0,0,0,0,0,0,0,0,0,0,0,-2.6898,-2.6898,-2.6859,-2.6858,-2.6857,-2.6784,-2.6783,-2.6782,-2.6658,-2.6655,-2.6652,-2.6649,-2.6575,-2.6575,-2.6575,0,0,0,0,0,0,0,0,0,0,0,0,0,-2.6858,-2.6898,-2.6859,-2.6786,-2.6779,-2.6784,-2.6783,-2.6781,-2.6658,-2.6655,-2.6651,-2.6648,-2.6575,-2.6575,-2.6575,-2.6646,0,0,-2.6576,-2.6576,0,0,0,0,0,0,0,0,-2.686,-2.6856,-2.6798,-2.6791,-2.6783,-2.6726,-2.6769,-2.6736,-2.6659,-2.6704,-2.665,-2.6646,-2.6628,-2.6624,-2.6617,-2.6642,-2.6639,-2.6576,-2.6576,-2.6576,-2.6576,0,0,0,0,0,0,0,-2.6863,-2.6859,-2.6829,-2.6797,-2.6788,-2.6758,-2.6749,-2.6762,-2.6686,-2.67,-2.6691,-2.6683,-2.6623,-2.6617,-2.6615,-2.6638,-2.6576,-2.6576,-2.6576,-2.6576,-2.6719,-2.6722,0,0,0,0,0,0,-2.6876,-2.6862,-2.6831,-2.6827,-2.6814,-2.676,-2.675,-2.6748,-2.6686,-2.6673,-2.6686,-2.6678,-2.6619,-2.6614,-2.6611,-2.669,-2.6576,-2.6576,-2.6576,-2.6715,-2.6719,-2.6723,0,0,0,0,0,0,-2.6878,-2.6875,-2.6834,-2.6842,-2.6834,-2.6763,-2.6762,-2.6748,-2.6742,-2.6676,-2.6662,-2.6694,-2.6616,-2.6611,-2.6638,-2.6686,-2.6576,-2.6576,-2.6711,-2.6716,-2.6721,-2.6849,0,0,0,0,0,0,-2.6879,-2.6876,-2.6901,-2.6843,-2.6835,-2.6862,-2.6765,-2.6749,-2.6743,-2.6731,-2.6679,-2.6667,-2.6613,-2.6639,-2.6639,-2.6684,-2.6577,-2.6706,-2.6713,-2.672,-2.684,-2.6858,-2.6873,0,0,0,0,0,-2.6881,-2.694,-2.6903,-2.69,-2.6864,-2.6865,-2.686,-2.6796,-2.6747,-2.6772,-2.673,-2.6669,-2.6681,-2.6643,-2.6641,-2.6688,-2.6703,-2.6711,-2.6719,-2.6832,-2.6854,-2.6873,0,0,0,0,0,0,-2.7004,-2.6931,-2.6889,-2.6931,-2.6905,-2.6844,-2.6873,-2.6821,-2.6809,-2.6798,-2.6719,-2.6709,-2.6747,-2.672,-2.6678,-2.6754,-2.6683,-2.6691,-2.6769,-2.679,-2.6806,-2.6811,-2.6577,0,0,0,0,0,-2.7037,-2.7043,-2.6978,-2.7021,-2.7011,-2.6945,-2.6943,-2.6896,-2.6866,-2.6855,-2.6814,-2.6789,-2.6787,-2.6787,-2.6781,-2.6836,-2.6824,-2.6868,-2.6885,-2.6899,-2.6907,-2.6935,-2.6954,-2.675,-2.675,-2.675,0,0,-2.7103,-2.7063,-2.7072,-2.7045,-2.702,-2.7029,-2.6936,-2.6949,-2.6955,-2.6856,-2.6879,-2.685,-2.6816,-2.6858,-2.6874,-2.6837,-2.6961,-2.6909,-2.6921,-2.6921,-2.6946,-2.6965,-2.6982,-2.6756,-2.6755,-2.6754,0,0,-2.7228,-2.7199,-2.7231,-2.7209,-2.7171,-2.7128,-2.7136,-2.7084,-2.706,-2.7082,-2.7009,-2.7016,-2.7014,-2.6993,-2.6982,-2.7104,-2.7047,-2.7104,-2.7191,-2.722,-2.7236,-2.7249,-2.7293,-2.7309,-2.7113,-2.7113,-2.7113,0,-2.7315,-2.7324,-2.7255,-2.7273,-2.7264,-2.7176,-2.721,-2.7191,-2.7155,-2.7151,-2.711,-2.7107,-2.7078,-2.7115,-2.7145,-2.7139,-2.7147,-2.7109,-2.7239,-2.7252,-2.7264,-2.7304,-2.7321,-2.712,-2.7119,-2.7118,-2.7118,0,-2.7433,-2.7441,-2.7473,-2.744,-2.7435,-2.7461,-2.7397,-2.74,-2.7355,-2.7317,-2.7342,-2.7304,-2.729,-2.7296,-2.7251,-2.7327,-2.7305,-2.7253,-2.7179,-2.7292,-2.7328,-2.7343,-2.713,-2.7128,-2.7126,-2.7124,0,0,-2.763,-2.7561,-2.7574,-2.7559,-2.7513,-2.7518,-2.7542,-2.7528,-2.7533,-2.7512,-2.753,-2.7532,-2.7484,-2.7472,-2.7425,-2.7451,-2.755,-2.7395,-2.7393,-2.7425,-2.7632,-2.7671,-2.769,-2.7513,-2.7516,-2.7518,-2.7635,0,-2.7745,-2.7779,-2.772,-2.7768,-2.7776,-2.7694,-2.7715,-2.769,-2.7655,-2.7657,-2.7619,-2.7622,-2.7559,-2.7551,-2.7573,-2.7533,-2.759,-2.7524,-2.753,-2.7531,-2.7539,-2.7709,-2.7749,-2.7861,-2.7649,-2.7651,-2.7653,0,-2.7882,-2.7869,-2.7918,-2.7872,-2.7872,-2.7892,-2.7876,-2.7879,-2.785,-2.7823,-2.7812,-2.7757,-2.7778,-2.7709,-2.7737,-2.7694,-2.7693,-2.7674,-2.7677,-2.7674,-2.7597,-2.771,-2.7895,-2.7912,-2.7675,-2.7673,-2.7671,0,-2.8022,-2.8016,-2.8045,-2.8034,-2.7981,-2.7996,-2.7975,-2.7942,-2.7939,-2.7926,-2.7923,-2.7913,-2.7907,-2.7901,-2.7846,-2.78,-2.7881,-2.7807,-2.786,-2.7862,-2.7879,-2.7878,-2.8066,-2.7881,-2.7881,-2.788,-2.788,0,-2.8155,-2.8189,-2.8107,-2.8124,-2.816,-2.8093,-2.8131,-2.8101,-2.8074,-2.8085,-2.8015,-2.8028,-2.7954,-2.796,-2.7917,-2.7947,-2.7945,-2.7925,-2.7913,-2.7931,-2.7933,-2.7928,-2.7918,-2.7885,-2.7884,-2.7883,-2.7882,0,-2.8315,-2.8261,-2.8288,-2.8236,-2.8224,-2.8253,-2.8208,-2.8223,-2.8186,-2.8202,-2.8201,-2.8142,-2.8145,-2.809,-2.8082,-2.8053,-2.8103,-2.8077,-2.8112,-2.8104,-2.816,-2.8155,-2.8349,-2.8372,-2.8174,-2.8176,-2.8178,0,-2.8403,-2.8427,-2.8378,-2.8381,-2.8363,-2.8368,-2.8364,-2.83,-2.83,-2.827,-2.829,-2.8287,-2.8281,-2.829,-2.8247,-2.8241,-2.8214,-2.8283,-2.8213,-2.8231,-2.8215,-2.8214,-2.8216,-2.8297,-2.83,-2.8302,-2.8303,0,-2.8565,-2.8538,-2.8535,-2.8524,-2.8522,-2.851,-2.8494,-2.8501,-2.8431,-2.8434,-2.8436,-2.8432,-2.8425,-2.8423,-2.841,-2.8388,-2.8335,-2.8326,-2.8338,-2.8356,-2.8375,-2.8365,-2.8152,-2.8322,-2.832,-2.8318,-2.8317,-2.8317,-2.8691,-2.8709,-2.8678,-2.8678,-2.8659,-2.8646,-2.8658,-2.8623,-2.8623,-2.8612,-2.8575,-2.8584,-2.8557,-2.8533,-2.8518,-2.8525,-2.8491,-2.8508,-2.8512,-2.8517,-2.8528,-2.8375,-2.8522,-2.8522,-2.8521,-2.852,-2.852,0,-2.8849,-2.8825,-2.8826,-2.8806,-2.8807,-2.8757,-2.8738,-2.8742,-2.875,-2.8729,-2.8726,-2.873,-2.8729,-2.8687,-2.8681,-2.8695,-2.8671,-2.8696,-2.8694,-2.869,-2.8558,-2.8548,-2.8716,-2.8716,-2.8716,-2.8716,-2.8716,-2.8716,-2.8931,-2.8959,-2.8929,-2.8948,-2.8925,-2.8933,-2.8926,-2.8915,-2.8898,-2.8905,-2.8904,-2.8877,-2.8848,-2.8841,-2.8838,-2.8826,-2.8827,-2.8861,-2.8841,-2.8718,-2.8699,-2.8681,-2.8671,-2.8862,-2.8862,-2.8971,-2.8972,-2.8973]},{"header":{"parameterUnit":"m.s-1","parameterCategory":1,"la1":30.2991,"la2":30.254,"lo1":-89.0895,"lo2":-89.0444,"dy":0.0017,"dx":0.0017,"nx":28,"ny":28,"refTime":"2025-08-25T09:00:00:Z","depth":0,"parameterNumber":3,"parameterNumberName":"V-component_of_WINDS"},"data":[0,0,0,0,0,0,0,0,0,0,0,0,0,0,0,0,0,0,0,0,0,0,0,0,0,0,0,0,0,0,0,0,0,0,0,0,0,0,0,0,0,0,0,0,0,0,0,0,0,0,0,0,0,0,0,0,0,0,2.3133,2.3133,0,2.313,2.313,2.3129,2.3167,2.3168,2.3169,2.317,2.3161,2.316,2.3158,0,0,0,0,0,0,0,0,0,0,0,0,0,2.3168,2.3167,2.3133,2.3133,2.3133,2.313,2.313,2.3129,2.3167,2.3168,2.3169,2.3171,2.3161,2.316,2.3158,0,0,0,0,0,0,0,0,0,0,0,0,0,2.3157,2.3167,2.3133,2.3151,2.3153,2.313,2.313,2.3129,2.3167,2.3168,2.317,2.3171,2.3162,2.316,2.3158,2.3115,0,0,2.3152,2.3152,0,0,0,0,0,0,0,0,2.3158,2.3156,2.3149,2.315,2.3152,2.3151,2.3138,2.3124,2.3166,2.3161,2.317,2.3172,2.3156,2.3154,2.315,2.3115,2.3114,2.3152,2.3151,2.315,2.315,0,0,0,0,0,0,0,2.3158,2.3156,2.3131,2.3148,2.315,2.3158,2.3159,2.3136,2.3149,2.3162,2.3165,2.3164,2.3157,2.3152,2.315,2.3114,2.3152,2.3151,2.315,2.3149,2.3044,2.3042,0,0,0,0,0,0,2.3157,2.3157,2.3132,2.3131,2.3159,2.3156,2.3157,2.3149,2.315,2.3152,2.3163,2.3166,2.3154,2.3152,2.315,2.31,2.315,2.3149,2.3148,2.3046,2.3044,2.3042,0,0,0,0,0,0,2.3158,2.3155,2.3132,2.3145,2.3143,2.3154,2.3145,2.3148,2.3143,2.3151,2.3153,2.3155,2.3155,2.3153,2.3124,2.31,2.3148,2.3146,2.3048,2.3045,2.3043,2.2999,0,0,0,0,0,0,2.3159,2.3155,2.3139,2.3144,2.3142,2.3107,2.3144,2.3147,2.3141,2.3145,2.3144,2.3146,2.3156,2.3127,2.3122,2.3098,2.3145,2.305,2.3046,2.3043,2.3002,2.2995,2.2989,0,0,0,0,0,2.316,2.3126,2.3138,2.3135,2.3123,2.3105,2.3104,2.3119,2.3139,2.3123,2.3128,2.3146,2.3104,2.3123,2.3119,2.3094,2.3051,2.3047,2.3044,2.3005,2.2997,2.2989,0,0,0,0,0,0,2.3115,2.3127,2.3141,2.3107,2.3106,2.3112,2.3092,2.3109,2.3099,2.3103,2.312,2.312,2.3088,2.3089,2.311,2.3053,2.3081,2.3076,2.3053,2.3045,2.3038,2.3038,2.3143,0,0,0,0,0,2.3102,2.3088,2.3099,2.3068,2.3067,2.308,2.3072,2.3085,2.3082,2.3081,2.3084,2.3079,2.3065,2.3055,2.3043,2.3004,2.3003,2.2984,2.2977,2.2972,2.2967,2.2946,2.2937,2.3029,2.3029,2.3029,0,0,2.3073,2.3078,2.3068,2.3059,2.3059,2.3043,2.3078,2.306,2.3048,2.3077,2.3051,2.3053,2.305,2.3015,2.3,2.3015,2.2942,2.2967,2.2963,2.296,2.2941,2.2932,2.2924,2.3027,2.3027,2.3028,0,0,2.3013,2.3016,2.2991,2.2991,2.2991,2.3,2.2995,2.2999,2.3002,2.2977,2.2999,2.2984,2.296,2.2956,2.2951,2.2893,2.2908,2.2888,2.2852,2.2831,2.2824,2.2817,2.2795,2.2787,2.2883,2.2883,2.2883,0,2.2977,2.2955,2.2975,2.2956,2.2951,2.2981,2.2955,2.2953,2.2948,2.2944,2.2961,2.2932,2.2931,2.2897,2.2883,2.2878,2.2871,2.2887,2.2824,2.2817,2.2812,2.2791,2.2783,2.2881,2.2881,2.2881,2.2881,0,2.291,2.2895,2.2875,2.2872,2.2866,2.2843,2.2859,2.2849,2.2862,2.287,2.2843,2.2844,2.2833,2.2826,2.2838,2.2793,2.2802,2.2821,2.2849,2.28,2.2781,2.2773,2.2877,2.2878,2.2879,2.2879,0,0,2.2819,2.283,2.2822,2.2821,2.2825,2.2813,2.2792,2.2783,2.2774,2.2771,2.2752,2.2732,2.2751,2.2745,2.2757,2.2739,2.2692,2.276,2.2761,2.2746,2.2642,2.2627,2.2617,2.2704,2.2702,2.2701,2.2642,0,2.276,2.2726,2.2744,2.2707,2.2693,2.2721,2.2703,2.2702,2.2709,2.2697,2.2704,2.2689,2.2715,2.2712,2.2696,2.2701,2.2671,2.2706,2.2685,2.2684,2.2683,2.2607,2.2591,2.2535,2.2635,2.2634,2.2633,0,2.2685,2.2681,2.2643,2.265,2.2645,2.2628,2.2622,2.2611,2.2611,2.2617,2.2612,2.2629,2.2608,2.2638,2.2608,2.2631,2.2624,2.2626,2.2624,2.2621,2.2654,2.2601,2.2518,2.2509,2.2621,2.2622,2.2623,0,2.2621,2.2606,2.2581,2.258,2.2588,2.2576,2.2578,2.258,2.2574,2.2569,2.2565,2.2556,2.255,2.2543,2.2556,2.2577,2.2524,2.2555,2.2527,2.2527,2.2513,2.2513,2.2426,2.2511,2.2511,2.2511,2.2512,0,2.2552,2.2527,2.2553,2.2537,2.2511,2.2532,2.2504,2.251,2.2512,2.2497,2.2521,2.2507,2.2526,2.2513,2.2524,2.2497,2.2495,2.2498,2.2501,2.2495,2.2494,2.2489,2.2492,2.2509,2.251,2.251,2.251,0,2.2475,2.2491,2.2466,2.2477,2.2479,2.2459,2.2468,2.2453,2.2463,2.2444,2.2441,2.2455,2.2441,2.2455,2.2441,2.2448,2.2412,2.2422,2.2413,2.2415,2.2385,2.2387,2.229,2.2278,2.2372,2.2371,2.2371,0,2.2428,2.241,2.242,2.2413,2.2415,2.2403,2.2398,2.2419,2.2412,2.2412,2.2397,2.2386,2.2378,2.2354,2.2362,2.2352,2.236,2.2327,2.2358,2.2354,2.2358,2.2359,2.2356,2.232,2.2318,2.2318,2.2317,0,2.2344,2.2354,2.2346,2.2341,2.2335,2.2332,2.233,2.2323,2.2344,2.2335,2.2323,2.2317,2.2304,2.2292,2.2285,2.2287,2.2304,2.2308,2.23,2.2293,2.2288,2.2289,2.2393,2.2309,2.231,2.231,2.2311,2.2311,2.228,2.2266,2.2271,2.2262,2.2264,2.2262,2.2249,2.2258,2.2249,2.2242,2.2255,2.2239,2.224,2.2233,2.2232,2.2219,2.2233,2.2222,2.2219,2.2216,2.2211,2.2292,2.2218,2.2218,2.2218,2.2219,2.2219,0,2.2197,2.2202,2.2194,2.2192,2.2184,2.2206,2.2205,2.2197,2.2183,2.2184,2.2177,2.2162,2.2152,2.216,2.2151,2.2139,2.2147,2.2135,2.2135,2.2135,2.22,2.2207,2.2129,2.2129,2.2129,2.2129,2.2129,2.2129,2.2152,2.2129,2.2139,2.2117,2.2122,2.2108,2.2107,2.2105,2.2106,2.2089,2.2081,2.2088,2.2092,2.2083,2.2074,2.2077,2.2072,2.2057,2.2062,2.2122,2.2131,2.2139,2.2145,2.2056,2.2056,2.1998,2.1998,2.1998]}]]